This demonstration page uses our WeatherBlox Daily Observations layout. Learn more.

Left ArrowRight Arrow

41.86663, -103.66717

Hourly Observations for August 16, 2021

Temp ( °F °C ) Dew Point ( °F °C ) Humidity (%) Winds ( mph kmh ) Pressure ( in mb ) Visibility ( mi km ) Precip ( " mm )
12:53 am 00:53 Clear 63 17.2 54 12.2 73 73 ENE 7 11 29.88 1012 10 16 N/A
1:53 am 01:53 Clear 62 16.7 56 13.3 80 80 NE 7 11 29.86 1011 10 16 N/A
2:53 am 02:53 Clear 61 16.1 56 13.3 84 84 N N/A 29.85 1011 10 16 N/A
3:53 am 03:53 Clear 57 13.9 52 11.1 83 83 WNW 6 9 29.85 1011 10 16 N/A
4:53 am 04:53 Clear 57 13.9 52 11.1 83 83 undefined N/A 29.85 1011 9 14 N/A
5:53 am 05:53 Clear 56 13.3 49 9.4 77 77 N N/A 29.86 1011 10 16 N/A
6:53 am 06:53 Sunny 57 13.9 50 10 78 78 WNW 5 7 29.88 1012 10 16 N/A
7:53 am 07:53 undefined 62 16.7 49 9.4 62 62 NW 6 9 29.90 1013 10 16 N/A
8:53 am 08:53 Sunny 70 21.1 47 8.3 44 44 W 7 11 29.89 1012 10 16 N/A
9:53 am 09:53 Sunny 75 23.9 49 9.4 40 40 NW 6 9 29.88 1012 10 16 N/A
10:53 am 10:53 Sunny 83 28.3 47 8.3 28 28 W 6 9 29.86 1011 10 16 N/A
11:53 am 11:53 Sunny 87 30.6 49 9.4 27 27 N N/A 29.83 1010 10 16 N/A
12:53 pm 12:53 Sunny 94 34.4 49 9.4 21 21 VRB 3 6 29.80 1009 9 14 N/A
1:53 pm 13:53 Sunny 94 34.4 43 6.1 17 17 SW 3 6 29.78 1008 9 14 N/A
2:53 pm 14:53 Sunny 97 36.1 41 5 14 14 VRB 5 7 29.76 1008 9 14 N/A
3:53 pm 15:53 Sunny 98 36.7 40 4.4 13 13 SSW 8 13 29.74 1007 9 14 N/A
4:53 pm 16:53 Sunny 97 36.1 40 4.4 14 14 S 8 13 29.72 1006 8 13 N/A
5:53 pm 17:53 Sunny 95 35 45 7.2 18 18 S 8 13 29.71 1006 8 13 N/A
6:53 pm 18:53 Sunny 91 32.8 48 8.9 23 23 S 6 9 29.71 1006 7 11 N/A
7:53 pm 19:53 Clear 79 26.1 56 13.3 45 45 E 8 13 29.73 1007 7 11 N/A
8:53 pm 20:53 Clear 76 24.4 53 11.7 45 45 E 9 15 29.74 1007 9 14 N/A
9:53 pm 21:53 Clear 71 21.7 53 11.7 53 53 E 8 13 29.76 1008 10 16 N/A
10:53 pm 22:53 Clear 70 21.1 52 11.1 53 53 ESE 7 11 29.75 1007 10 16 N/A
11:53 pm 23:53 Clear 68 20 52 11.1 57 57 E 7 11 29.75 1007 10 16 N/A

Powered by AerisWeather